Regional Weather Roundup
Issued by NWS

Home | Current Version | Previous Version | Graphics & Text | Print | Product List | Glossary Off
Versions: 1 2 3 4 5 6 7 8 9 10 11 12 13 14 15 16 17 18 19 20 21 22 23 24 25 26 27 28 29 30 31 32 33 34 35 36 37 38 39 40 41 42 43 44 45 46 47 48 49 50

150
ASUS43 KTOP 070659
RWRKS

WEATHER ROUNDUP FOR KANSAS
NATIONAL WEATHER SERVICE GOODLAND KS
100 AM CST WED DEC 07 2016

NOTE:  "FAIR" INDICATES FEW OR NO CLOUDS BELOW 12,000 FEET WITH NO
SIGNIFICANT WEATHER AND/OR OBSTRUCTIONS TO VISIBILITY.

KSZ001>006-013>018-027>032-041>047-070800-
NORTHWEST KANSAS

CITY           SKY/WX    TMP DP  RH WIND       PRES   REMARKS
$$

KSZ061>065-074>080-084>089-070800-
SOUTHWEST KANSAS

CITY           SKY/WX    TMP DP  RH WIND       PRES   REMARKS
DODGE CITY     CLOUDY    22  14  71 E6        30.04F
ELKHART          N/A     17   3  54 SE13        N/A  WCI   4
$$

KSZ066>073-081>083-090>101-070800-
SOUTHEAST KANSAS

CITY           SKY/WX    TMP DP  RH WIND       PRES   REMARKS
CHANUTE        CLOUDY    30  24  78 CALM      30.17R
COFFEYVILLE    PTCLDY    30  22  72 N6        30.16S
HUTCHINSON     CLOUDY    32  20  61 W3        30.13R
MEDICINE LODGE   N/A     31  19  61 E5        30.10F
PARSONS        CLOUDY    30  23  75 CALM      30.17R
$$

KSZ007>012-019>026-033>040-048>060-102>105-070800-
NORTHEAST KANSAS

CITY           SKY/WX    TMP DP  RH WIND       PRES   REMARKS
MANHATTAN      CLOUDY    28  22  78 N3        30.17S
$$




USA.gov is the U.S. government's official web portal to all federal, state and local government web resources and services.